Weather in Khushenga

Russia / Zabaykalsky Krai     51°26′00″N   110°55′20″E
temp.,
°C
wind,
m/s
gust,
m/s
humid.,
%
clouds,
%
prec.,
mm/h
press.,
hPa
HPBL,
m
4 march, thu
thu400:00−16w239234 0.0 101565
03:00−17w269452 0.0 1017135
06:00−20w3119565 0.0 1022432
09:00−21w3138932 0.0 1026813
12:00−18wnw58630 0.0 10271025
15:00−16wnw59610 0.0 10281109
18:00−17wnw58723 0.0 10301033
21:00−22wnw288933 0.0 1036209
5 march, fri
fri500:00−25wnw22920 0.0 104019
03:00−27wnw11900 0.0 104319
06:00−29sw11910 0.0 104519
09:00−28ese00920 0.0 104519
12:00−18s12666 0.0 1041342
15:00−10sw136612 0.0 1035593
18:00−10ene127539 0.0 1032291
21:00−17ne129228 0.0 103420
6 march, sat
sat600:00−18e119616 0.0 103320
03:00−19e119746 0.0 103220
06:00−20e119926 0.0 103020
09:00−17ne119463 0.0 103022
12:00−9wsw1370100 0.0 1027475
15:00−8wnw3779100 0.1 1026638
18:00−7w388091 0.0 1025729
21:00−13w239558 0.0 102826
7 march, sun
sun700:00−14wsw22960 0.0 102920
03:00−14wsw129514 0.0 102920
06:00−15wsw229349 0.0 102920
09:00−14sw119325 0.0 102920
12:00−5sw237132 0.0 1024340
15:00−1wsw256362 0.0 1021826
18:00−2wsw247073 0.0 1020387
21:00−8w128363 0.0 102321
8 march, mon
mon800:00−10wsw11870 0.0 102421
03:00−11sw12910 0.0 102421
06:00−11wsw129064 0.0 102521
09:00−10wsw129082 0.0 102634
12:00−3sw24690 0.0 1023409
15:00+1wsw36620 0.0 1022930
18:000wsw237147 0.0 1020125
21:00−7w128655 0.0 102321